Station NPXN6 - Norrie Point, Hudson River Reserve, NY Image indicating link to RSS feed of recent meteorological observations for station NPXN6


Conditions at NPXN6 as of
(2:30 am EDT)
0630 GMT on 06/15/2024:
     

Click on the graph icon in the table below to see a time series plot of the last five days of that observation.

5-day plot - Wind Direction Wind Direction (WDIR): NE ( 40 deg true )
5-day plot - Wind Speed Wind Speed (WSPD): 1.9 kts
5-day plot - Atmospheric Pressure Atmospheric Pressure (PRES):29.91 in
5-day plot - Air Temperature Air Temperature (ATMP): 63.3 °F
5-day plot - Dew Point Dew Point (DEWP): 62.2 °F
5-day plot -  Wind Speed, Wind Gust and Atmospheric Pressure Combined plot of Wind Speed, Gust, and Air Pressure
Previous observations
TIME
(EDT)
5-day plot - Wind Direction
WDIR
 
5-day plot - Wind Speed
WSPD
kts
5-day plot - Wind Gust
GST
kts
5-day plot - Wave Height
WVHT
ft
5-day plot - Dominant Wave Period
DPD
sec
5-day plot - Average Wave Period
APD
sec
5-day plot - Mean Wave Direction
MWD
 
5-day plot - Atmospheric Pressure
PRES
in
5-day plot - Pressure Tendency
PTDY
in
5-day plot - Air Temperature
ATMP
°F
5-day plot - Water Temperature
WTMP
°F
5-day plot - Dew Point
DEWP
°F
5-day plot - Salinity
SAL
psu
5-day plot - Visibility
VIS
nmi
5-day plot - Tide (above MLLW)
TIDE
ft
2024-06-15 02:15 amENE 1.0-----29.91- 63.7- 62.6---
2024-06-15 02:00 am NE 1.9-----29.91+0.00 63.7- 62.2---
2024-06-15 01:45 am NE 1.9-----29.91- 64.2- 62.8---
2024-06-15 01:30 amENE 2.9-----29.91- 64.4- 63.0---
2024-06-15 01:15 amENE 1.9-----29.91- 64.6- 62.8---
2024-06-15 01:00 am E 1.9-----29.91+0.03 65.3- 63.3---
2024-06-15 12:45 am- 0.0-----29.91- 66.2- 63.5---
2024-06-15 12:30 amESE 1.0-----29.91- 66.6- 63.7---
2024-06-15 12:15 amESE 1.0-----29.91- 67.3- 63.7---
2024-06-15 12:00 am SE 1.9-----29.91+0.06 67.6- 63.7---
2024-06-14 11:45 pmESE 1.0-----29.91- 68.2- 64.6---
2024-06-14 11:30 pmSSE 2.9-----29.91- 68.5- 64.9---
2024-06-14 11:15 pm S 2.9-----29.91- 68.7- 65.5---
2024-06-14 11:00 pmSSE 1.9-----29.91+0.09 69.3- 65.7---
2024-06-14 10:45 pmSSW 2.9-----29.91- 69.4- 65.8---
2024-06-14 10:30 pmSSE 1.9-----29.88- 69.1- 65.8---
2024-06-14 10:15 pmSSE 1.9-----29.88- 69.1- 66.0---
2024-06-14 10:00 pm- 0.0-----29.88+0.06 68.9- 65.8---
2024-06-14 09:45 pm- 0.0-----29.88- 69.4- 66.2---
2024-06-14 09:30 pmNNE 2.9-----29.88- 69.4- 65.8---
2024-06-14 09:15 pm NE 1.9-----29.85- 69.6- 66.0---
2024-06-14 09:00 pm E 2.9-----29.85+0.00 70.3- 66.0---
2024-06-14 08:45 pmESE 1.9-----29.85- 70.7- 66.0---
2024-06-14 08:30 pm S 2.9-----29.83- 71.4- 66.4---
2024-06-14 08:15 pmSSE 5.1-----29.83- 71.4- 67.1---
2024-06-14 08:00 pmESE 2.9-----29.83+0.00 71.4- 67.5---
2024-06-14 07:45 pm W 5.1-----29.83- 72.3- 66.9---
2024-06-14 07:30 pmSSE 8.9-----29.80- 72.3- 67.3---
2024-06-14 07:15 pmSSE 8.9-----29.83- 73.0- 68.0---
2024-06-14 07:00 pm SE 5.1-----29.83+0.00 73.8- 69.1---
2024-06-14 06:45 pmSSE 4.1-----29.83- 74.7- 69.3---
2024-06-14 06:30 pmSSW 5.1-----29.85- 75.7- 69.3---
2024-06-14 06:15 pmSSE 5.1-----29.85- 76.5- 68.2---
2024-06-14 06:00 pmSSE 5.1-----29.85+0.00 76.6- 68.4---
2024-06-14 05:45 pm S 5.1-----29.83- 76.6- 68.0---
2024-06-14 05:30 pm S 6.0-----29.83- 76.5- 68.2---
2024-06-14 05:15 pm S 7.0-----29.83- 77.0- 68.7---
2024-06-14 05:00 pm S 5.1-----29.83-0.03 76.6- 69.8---
2024-06-14 04:45 pm S 6.0-----29.83- 77.5- 68.7---
2024-06-14 04:30 pm S 4.1-----29.83- 78.3- 67.5---
2024-06-14 04:15 pm S 6.0-----29.83- 77.9- 67.6---
2024-06-14 04:00 pm S 5.1-----29.83-0.06 77.7- 67.5---
2024-06-14 03:45 pm S 5.1-----29.85- 77.9- 67.1---
2024-06-14 03:30 pm S 4.1-----29.85- 77.5- 67.3---
2024-06-14 03:15 pm S 7.0-----29.85- 77.2- 67.3---
2024-06-14 03:00 pm S 8.0-----29.85-0.03 77.5- 68.0---
2024-06-14 02:45 pm S 8.0-----29.85- 77.5- 67.6---
2024-06-14 02:30 pm S 11.1-----29.85- 77.5- 68.0---
2024-06-14 02:15 pm S 12.0-----29.85- 78.1- 68.5---
2024-06-14 02:00 pm S 11.1-----29.85-0.03 77.9- 68.4---
2024-06-14 01:45 pm S 8.0-----29.88- 77.9- 69.6---
2024-06-14 01:30 pm S 5.1-----29.88- 76.8- 70.0---
2024-06-14 01:15 pm S 5.1-----29.88- 76.6- 69.8---
2024-06-14 01:00 pmSSE 5.1-----29.88+0.00 77.7- 68.9---
2024-06-14 12:45 pm S 5.1-----29.88- 77.0- 68.7---
2024-06-14 12:30 pm S 6.0-----29.88- 76.6- 68.4---
2024-06-14 12:15 pm S 5.1-----29.88- 75.0- 69.6---
2024-06-14 12:00 pm S 4.1-----29.88+0.00 75.4- 68.5---
2024-06-14 11:45 am S 2.9-----29.88- 75.4- 68.5---
2024-06-14 11:30 am S 2.9-----29.88- 74.8- 68.4---
2024-06-14 11:15 am SE 2.9-----29.88- 74.8- 67.6---
2024-06-14 11:00 amSSE 2.9-----29.88+0.00 75.0- 67.5---
2024-06-14 10:45 am S 5.1-----29.88- 75.2- 67.3---
2024-06-14 10:30 amSSE 5.1-----29.88- 75.6- 67.3---
2024-06-14 10:15 am S 6.0-----29.88- 75.7- 67.5---
2024-06-14 10:00 am S 7.0-----29.88+0.00 75.6- 67.3---
2024-06-14 09:45 am S 8.0-----29.88- 75.7- 67.5---
2024-06-14 09:30 am S 8.0-----29.88- 75.4- 67.1---
2024-06-14 09:15 am S 8.0-----29.88- 74.8- 66.6---
2024-06-14 09:00 amSSE 8.0-----29.88+0.00 74.3- 66.4---
2024-06-14 08:45 am S 8.0-----29.88- 73.6- 66.0---
2024-06-14 08:30 amSSE 8.0-----29.88- 73.2- 66.0---
2024-06-14 08:15 am S 7.0-----29.88- 73.0- 65.5---
2024-06-14 08:00 amSSE 5.1-----29.88+0.00 72.9- 65.8---
2024-06-14 07:45 am SE 4.1-----29.88- 72.0- 64.9---
2024-06-14 07:30 amSSE 5.1-----29.88- 71.2- 64.6---
2024-06-14 07:15 am SE 2.9-----29.88- 70.7- 64.4---
2024-06-14 07:00 amESE 1.9-----29.88+0.00 69.6- 64.4---
2024-06-14 06:45 am E 1.9-----29.88- 68.2- 63.9---
2024-06-14 06:30 am E 1.9-----29.88- 67.5- 63.5---
2024-06-14 06:15 am- 0.0-----29.88- 66.4- 63.5---
2024-06-14 06:00 amNNE 1.0-----29.88+0.00 66.2- 63.3---
2024-06-14 05:45 am E 1.0-----29.88- 65.7- 63.3---
2024-06-14 05:30 am- 0.0-----29.88- 66.0- 63.3---
2024-06-14 05:15 am- 0.0-----29.88- 66.0- 63.1---
2024-06-14 05:00 am W 1.0-----29.88-0.03 66.9- 63.7---
2024-06-14 04:45 am- 0.0-----29.88- 67.3- 63.0---
2024-06-14 04:30 am S 1.9-----29.88- 68.2- 63.7---
2024-06-14 04:15 am SE 1.9-----29.88- 67.8- 63.3---
2024-06-14 04:00 am SE 1.9-----29.88-0.03 67.1- 63.1---
2024-06-14 03:45 amESE 1.0-----29.88- 66.7- 62.4---
2024-06-14 03:30 am- 0.0-----29.88- 67.1- 62.8---
2024-06-14 03:15 am E 1.0-----29.88- 67.3- 63.0---
2024-06-14 03:00 am N 1.0-----29.88-0.06 67.8- 63.0---